{"data":{"norad_id":55471,"intl_designator":"2023-015Y","name":"STARLINK-5711","alt_names":[],"object_type":"PAYLOAD","status":"ACTIVE","operator":null,"country":"US","launch_date":"2023-02-02","launch_site_code":"AFETR","launch_vehicle":null,"mission":null,"orbit_class":"UNKNOWN","rcs_meters":null,"size_class":null,"mass_kg":null,"dimensions":null,"purposes":["comms"],"wikipedia_slug":null,"has_3d_model":false,"image_url":null,"decayed_at":null,"tle_current":{"epoch":"2026-05-24T19:01:07.846752Z","epoch_age_seconds":87014,"freshness":"FRESH","line1":"1 55471U 23015Y   26144.79245193 -.00000065  00000+0  71836-5 0  9991","line2":"2 55471  43.0026 258.6908 0001620 265.8104  94.2563 15.27574184182365","mean_motion":15.27574184,"eccentricity":0.000162,"inclination_deg":43.0026,"raan_deg":258.6908,"arg_perigee_deg":265.8104,"mean_anomaly_deg":94.2563,"bstar":7.1836e-6,"rev_number":18236,"period_min":94.267107619567,"perigee_km":481.95499632237,"apogee_km":484.17802626003,"semimajor_km":6861.2035112912,"source":"CELESTRAK","updated_at":"2026-05-25T13:38:17.807209Z"}}}